Little Rock, AR

5:45 AM CST on November 13, 2019 (GMT -0600)
Adams

Weather History for KLIT - October, 2019

Change the Weather History Date:

Sunday, October 20, 2019

  Actual Average Record
Temperature  
Mean Temperature 69 °F 62 °F  
Max Temperature 80 °F 72 °F 89 °F (2003)
Min Temperature 58 °F 53 °F 32 °F (1989)
Degree Days  
Heating Degree Days 0 4  
Month to date heating degree days 68 56  
Since 1 July heating degree days 68 69  
Cooling Degree Days 4 2  
Month to date cooling degree days 91 65  
Year to date cooling degree days 2163 2139  
Growing Degree Days 19 (Base 50)    
Moisture  
Dew Point 61 °F    
Average Humidity 79    
Maximum Humidity 97    
Minimum Humidity 60    
Precipitation  
Precipitation 0.00 in 0.18 in 1.80 in (1984)
Month to date precipitation 1.52 2.97  
Year to date precipitation 54.46 37.80  
Snow  
Snow 0.00 in 0.00 in - ()
Month to date snowfall 0.0 0.0  
Since 1 July snowfall 0.0 0.0  
Since 1 September snowfall 0.0 0.0  
Snow Depth 0.00 in    
Sea Level Pressure  
Sea Level Pressure 29.79 in    
Wind  
Wind Speed 6 mph (SE)    
Max Wind Speed 17 mph    
Max Gust Speed 24 mph    
Visibility 10 miles    
Events      
T = Trace of Precipitation, MM = Missing Value Source: NWS Daily Summary

Daily Weather History Graph

Daily Weather History Graph

Search for Another Location

Airport or City:

Astronomy

Oct. 20, 2019 Rise Set
Actual Time 7:18 AM CDT 6:28 PM CDT
Civil Twilight 6:53 AM CDT 6:53 PM CDT
Nautical Twilight 6:23 AM CDT 7:23 PM CDT
Astronomical Twilight 5:54 AM CDT 7:52 PM CDT
Moon 11:47 PM CDT (10/20) 1:37 PM CDT (10/20)
Length of Visible Light 12h 00m
Length of Day
11h 09m
Waning Gibbous, 59% of the Moon is Illuminated
Oct 20
Waning Gibbous
Oct 21
Last Quarter
Oct 27
New
Nov 4
First Quarter
Nov 12
Full

Hourly Weather History & Observations

Time (CDT) Temp. Heat Index Dew Point Humidity Pressure Visibility Wind Dir Wind Speed Gust Speed Precip Events Conditions
12:53 AM 64.9 °F - 59.0 °F 81% 29.79 in 10.0 mi SE 3.5 mph - N/A   Overcast
1:53 AM 64.9 °F - 57.9 °F 78% 29.80 in 10.0 mi Calm Calm - N/A   Overcast
2:53 AM 64.0 °F - 59.0 °F 84% 29.80 in 10.0 mi Calm Calm - N/A   Overcast
3:53 AM 62.1 °F - 59.0 °F 90% 29.80 in 10.0 mi Calm Calm - N/A   Overcast
4:53 AM 62.1 °F - 59.0 °F 90% 29.80 in 10.0 mi ENE 4.6 mph - N/A   Mostly Cloudy
5:53 AM 60.1 °F - 57.9 °F 93% 29.83 in 10.0 mi North 3.5 mph - N/A   Scattered Clouds
6:53 AM 57.9 °F - 57.0 °F 97% 29.84 in 10.0 mi East 4.6 mph - N/A   Scattered Clouds
7:53 AM 57.9 °F - 55.9 °F 93% 29.85 in 10.0 mi ESE 4.6 mph - N/A   Scattered Clouds
8:53 AM 64.0 °F - 57.0 °F 78% 29.85 in 10.0 mi ESE 4.6 mph - N/A   Scattered Clouds
9:53 AM 69.1 °F - 55.0 °F 61% 29.86 in 10.0 mi Variable 4.6 mph - N/A   Partly Cloudy
10:53 AM 73.0 °F - 55.9 °F 55% 29.85 in 10.0 mi SE 8.1 mph - N/A   Partly Cloudy
11:53 AM 75.9 °F - 57.9 °F 54% 29.84 in 10.0 mi ESE 6.9 mph - N/A   Partly Cloudy
12:53 PM 78.1 °F - 60.1 °F 54% 29.82 in 10.0 mi ESE 6.9 mph - N/A   Mostly Cloudy
1:53 PM 78.1 °F - 62.1 °F 58% 29.80 in 10.0 mi SE 9.2 mph - N/A   Mostly Cloudy
2:53 PM 81.0 °F 82.2 °F 63.0 °F 54% 29.77 in 10.0 mi South 10.4 mph - N/A   Scattered Clouds
3:53 PM 81.0 °F 82.7 °F 64.9 °F 58% 29.77 in 10.0 mi South 8.1 mph - N/A   Scattered Clouds
4:53 PM 79.0 °F - 66.0 °F 64% 29.76 in 10.0 mi SSE 8.1 mph - N/A   Scattered Clouds
5:53 PM 75.9 °F - 66.9 °F 74% 29.75 in 10.0 mi SSE 9.2 mph - N/A   Partly Cloudy
6:53 PM 72.0 °F - 66.9 °F 84% 29.75 in 10.0 mi SSE 9.2 mph - N/A   Partly Cloudy
7:53 PM 69.1 °F - 66.0 °F 90% 29.76 in 10.0 mi SSE 6.9 mph - N/A   Clear
9:15 PM 68.0 °F - 66.2 °F 94% 29.76 in 10.0 mi SSE 5.8 mph - N/A   Partly Cloudy
9:53 PM 68.0 °F - 66.0 °F 93% 29.75 in 10.0 mi SE 4.6 mph - N/A   Scattered Clouds
10:53 PM 70.0 °F - 66.9 °F 90% 29.73 in 10.0 mi SE 10.4 mph - N/A   Scattered Clouds
11:53 PM 70.0 °F - 68.0 °F 93% 29.68 in 10.0 mi SSE 12.7 mph - N/A   Scattered Clouds